Regional Weather Roundup
Issued by NWS

Home | Current Version | Previous Version | Text Only | Print | Product List | Glossary On
Versions: 1 2 3 4 5 6 7 8 9 10 11 12 13 14 15 16 17 18 19 20 21 22 23 24 25 26 27 28 29 30 31 32 33 34 35 36 37 38 39 40 41 42 43 44 45 46 47 48 49 50
000
ASUS45 KABQ 181901
RWRNM
WEATHER ROUNDUP FOR NEW MEXICO
NATIONAL WEATHER SERVICE ALBUQUERQUE NM
100 PM MDT FRI APR 18 2014

NOTE: "FAIR" MEANS FEW OR NO CLOUDS BELOW 12,000 FEET AGL WITH NO
       SIGNIFICANT WEATHER OR OBSTRUCTIONS TO VISION.

      THIS PRODUCT IS RELEASED AS TWO VERSIONS.  ONE VERSION NEAR
      THE TOP OF THE HOUR CONTAINING PRELIMINARY DATA FROM ALBUQUERQUE
      AND OTHER STATIONS.  A FINAL VERSION WITH ADDITIONAL DATA IS
      ISSUED ABOUT 10 MINUTES AFTER THE HOUR.

NMZ501-503-504-510>518-182000-
NORTHWEST PLATEAU/NORTHCENTRAL MOUNTAINS

CITY           SKY/WX    TMP DP  RH WIND       PRES   REMARKS
FARMINGTON     SUNNY     72  20  14 CALM      30.04F
LOS ALAMOS     SUNNY     63  26  24 S9        30.19F
SANTA FE       SUNNY     67  24  19 SW7       30.15F
TAOS           SUNNY     64  25  22 S3        30.20F
ANGEL FIRE     FAIR      60  28  30 W16       30.24F

$$
NMZ402-403-502-505>509-182000-
WESTCENTRAL MOUNTAINS/SOUTHWEST MOUNTAINS

CITY           SKY/WX    TMP DP  RH WIND       PRES   REMARKS
GALLUP         CLOUDY    74  18  12 S21G31    30.10F
SILVER CITY    PTSUNNY   66  30  26 SE12G21   30.15F

$$
NMZ407-409-411-412-182000-
SOUTHERN DESERTS

CITY           SKY/WX    TMP DP  RH WIND       PRES   REMARKS
DEMING         CLOUDY    75  31  19 E17G23    30.07F
LAS CRUCES     PTSUNNY   73  36  25 SE10G20   30.11F
HOLLOMAN AFB   PTSUNNY   74  35  24 S16       30.09F
T OR C         CLOUDY    72  27  18 VRB6G17   30.10F

$$
NMZ519>523-182000-
CENTRAL VALLEYS/CENTRAL HIGHLANDS

CITY           SKY/WX    TMP DP  RH WIND       PRES   REMARKS
ALBUQUERQUE    PTSUNNY   70  26  19 S9        30.13F
DOUBLE EAGLE   PTSUNNY   66  27  22 SE10      30.15F
CLINES CORNERS MOSUNNY   67  24  19 SW14G22   30.19F
BELEN          FAIR      73  26  17 S8        30.11F
SOCORRO        NOT AVBL

$$
NMZ524>526-539-540-182000-
SOUTHCENTRAL MOUNTAINS

CITY           SKY/WX    TMP DP  RH WIND       PRES   REMARKS
RUIDOSO        NOT AVBL

$$
NMZ527>531-182000-
NORTHEAST HIGHLANDS/NORTHEAST PLAINS

CITY           SKY/WX    TMP DP  RH WIND       PRES   REMARKS
LAS VEGAS      SUNNY     70  24  17 S21G30    30.14F
RATON          SUNNY     63  34  33 VRB7      30.11F
CLAYTON        SUNNY     67  37  33 S26G32    30.08F

$$
NMZ532>537-182000-
EASTCENTRAL PLAINS

CITY           SKY/WX    TMP DP  RH WIND       PRES   REMARKS
TUCUMCARI      SUNNY     70  44  39 S22       30.10F
CANNON AFB     MOSUNNY   62  44  50 S16G23    30.18F
CLOVIS AIRPORT PTSUNNY   63  46  55 S18G24    30.21F

$$
NMZ028-029-538-182000-
SOUTHEAST PLAINS

CITY           SKY/WX    TMP DP  RH WIND       PRES   REMARKS
ROSWELL        MOSUNNY   65  48  54 S16G26    30.15F
CARLSBAD       PTSUNNY   63  49  60 SE12G25   30.16F
HOBBS          CLOUDY    59  50  72 SE15      30.20F


$$



USA.gov is the U.S. government's official web portal to all federal, state and local government web resources and services.